Terug naar catalogus

COSMOS 2239

ActiefMilitairPO
NORAD 22590·PAYLOAD·🇷🇺 Russia

Gelanceerd Apr 1, 1993 vanaf Plesetsk Cosmodrome

Loading…

Volgende Passages (komende 24 uur)

TLE

VersSource: Space-Track

Epoch: Sep 14, 2026, 19:03 UTC

1 22590U 93020A   26257.79405766  .00000031  00000-0  16718-4 0  9999
2 22590  82.9272  74.1931 0023976  45.7071 325.4123 13.75640841679108

Volg COSMOS 2239 in realtime met AllMySat

Download on the App Store